| time (UTC) | temp F | wind direction | speed knots | gust knots | rain 1hr in | rain 24hr in | rain mn in | humidity % | barometer mb |
| 20260505011600 | 73 | 138 | 2.6 | 6.1 | 0.00 | 0.00 | 0.00 | 48 | 1009.0 |
| 20260505010104 | 74 | 200 | 4.3 | 8.7 | 0.00 | 0.00 | 0.00 | 46 | 1008.8 |
| 20260505004557 | 75 | 130 | 4.3 | 7.8 | 0.00 | 0.00 | 0.00 | 45 | 1008.7 |
| 20260505003106 | 76 | 186 | 6.1 | 10.4 | 0.00 | 0.00 | 0.00 | 45 | 1008.8 |
| 20260505001530 | 77 | 197 | 4.3 | 13.9 | 0.00 | 0.00 | 0.00 | 43 | 1008.7 |
| 20260505000034 | 77 | 204 | 5.2 | 9.6 | 0.00 | 0.00 | 0.00 | 41 | 1008.7 |
| 20260504234513 | 78 | 178 | 4.3 | 12.2 | 0.00 | 0.00 | 0.00 | 41 | 1009.0 |
| 20260504233017 | 78 | 224 | 5.2 | 12.2 | 0.00 | 0.00 | 0.00 | 40 | 1009.1 |
| 20260504231512 | 79 | 169 | 4.3 | 12.2 | 0.00 | 0.00 | 0.00 | 39 | 1009.2 |
| 20260504230013 | 80 | 217 | 6.1 | 12.2 | 0.00 | 0.00 | 0.00 | 39 | 1009.4 |
| 20260504224517 | 80 | 213 | 6.1 | 12.2 | 0.00 | 0.00 | 0.00 | 39 | 1009.3 |
| 20260504223015 | 80 | 214 | 7.0 | 16.5 | 0.00 | 0.00 | 0.00 | 38 | 1009.4 |
| 20260504221510 | 80 | 176 | 6.1 | 13.0 | 0.00 | 0.00 | 0.00 | 38 | 1009.3 |
| 20260504220010 | 80 | 204 | 8.7 | 17.4 | 0.00 | 0.00 | 0.00 | 37 | 1009.4 |
| 20260504214558 | 81 | 265 | 6.1 | 13.0 | 0.00 | 0.00 | 0.00 | 37 | 1009.2 |
| 20260504213106 | 81 | 212 | 8.7 | 13.9 | 0.00 | 0.00 | 0.00 | 38 | 1009.3 |
| 20260504211651 | 81 | 235 | 5.2 | 13.0 | 0.00 | 0.00 | 0.00 | 38 | 1008.9 |
| 20260504210056 | 81 | 211 | 7.8 | 18.2 | 0.00 | 0.00 | 0.00 | 38 | 1009.5 |
| 20260504204556 | 81 | 174 | 7.0 | 18.2 | 0.00 | 0.00 | 0.00 | 39 | 1009.6 |
| 20260504203053 | 81 | 234 | 8.7 | 17.4 | 0.00 | 0.00 | 0.00 | 37 | 1009.7 |
| 20260504201555 | 81 | 114 | 7.0 | 19.1 | 0.00 | 0.00 | 0.00 | 38 | 1009.9 |
| 20260504200053 | 81 | 248 | 8.7 | 19.1 | 0.00 | 0.00 | 0.00 | 37 | 1010.1 |
| 20260504194544 | 81 | 156 | 7.0 | 16.5 | 0.00 | 0.00 | 0.00 | 36 | 1010.2 |
| 20260504193036 | 81 | 158 | 7.0 | 17.4 | 0.00 | 0.00 | 0.00 | 37 | 1010.4 |
| 20260504191535 | 81 | 193 | 6.1 | 13.9 | 0.00 | 0.00 | 0.00 | 38 | 1010.5 |
| 20260504190030 | 80 | 214 | 11.3 | 21.7 | 0.00 | 0.00 | 0.00 | 36 | 1010.8 |
| 20260504184542 | 80 | 168 | 7.0 | 17.4 | 0.00 | 0.00 | 0.00 | 36 | 1010.9 |
| 20260504183027 | 80 | 233 | 11.3 | 18.2 | 0.00 | 0.00 | 0.00 | 38 | 1011.1 |
| 20260504181523 | 79 | 229 | 8.7 | 17.4 | 0.00 | 0.00 | 0.00 | 38 | 1011.4 |
| 20260504180024 | 79 | 206 | 7.8 | 19.1 | 0.00 | 0.00 | 0.00 | 39 | 1011.6 |
| 20260504174509 | 79 | 204 | 8.7 | 18.2 | 0.00 | 0.00 | 0.00 | 39 | 1011.7 |
| 20260504173006 | 79 | 200 | 6.1 | 17.4 | 0.00 | 0.00 | 0.00 | 40 | 1011.8 |
| 20260504171504 | 78 | 250 | 7.0 | 20.9 | 0.00 | 0.00 | 0.00 | 40 | 1012.0 |
| 20260504081507 | 64 | 184 | 4.3 | 9.6 | 0.00 | 0.00 | 0.00 | 62 | 1013.1 |
| 20260504050001 | 65 | 194 | 1.7 | 7.0 | 0.00 | 0.00 | 0.00 | 57 | 1014.8 |
| 20260504044501 | 65 | 174 | 1.7 | 6.1 | 0.00 | 0.00 | 0.00 | 57 | 1014.8 |
| 20260504043048 | 65 | 201 | 0.9 | 5.2 | 0.00 | 0.00 | 0.00 | 57 | 1014.9 |
| 20260504041548 | 66 | 191 | 2.6 | 6.1 | 0.00 | 0.00 | 0.00 | 56 | 1014.9 |
| 20260504040100 | 65 | 134 | 0.9 | 7.0 | 0.00 | 0.00 | 0.00 | 56 | 1015.1 |
| 20260504034547 | 64 | 138 | 0.0 | 5.2 | 0.00 | 0.00 | 0.00 | 57 | 1015.0 |
| 20260504033049 | 63 | 175 | 0.0 | 4.3 | 0.00 | 0.00 | 0.00 | 59 | 1015.3 |
| 20260504031555 | 63 | 127 | 0.0 | 1.7 | 0.00 | 0.00 | 0.00 | 59 | 1015.4 |
| 20260504030045 | 63 | 128 | 0.0 | 0.9 | 0.00 | 0.00 | 0.00 | 59 | 1015.4 |
| 20260504024545 | 63 | 128 | 0.0 | 0.9 | 0.00 | 0.00 | 0.00 | 58 | 1015.4 |
| 20260504023030 | 64 | 128 | 0.0 | 0.0 | 0.00 | 0.00 | 0.00 | 57 | 1015.4 |
| 20260504021526 | 65 | 128 | 0.0 | 0.0 | 0.00 | 0.00 | 0.00 | 56 | 1015.3 |
| 20260504020016 | 65 | 128 | 0.0 | 1.7 | 0.00 | 0.00 | 0.00 | 54 | 1015.2 |
| 20260504014523 | 66 | 126 | 0.0 | 1.7 | 0.00 | 0.00 | 0.00 | 52 | 1015.0 |
| 20260504013013 | 67 | 166 | 0.0 | 4.3 | 0.00 | 0.00 | 0.00 | 50 | 1015.0 |